Location: Zagreb
(45.8000°N, 16.0000°E)
Time: 17:19:06
(UTC+02:00)

Vanguard 2 Rocket - Visible Passes

Search period start: 10 August 2022 00:00
Search period end: 20 August 2022 00:00
Orbit: 553 x 3323 km, 32.9° (Epoch: 09 August)

Date Brightness Start Highest point End Pass type
(mag) Time Alt. Az. Time Alt. Az. Time Alt. Az.
10 Aug 9.7 20:37:53 10° W 20:53:21 35° SSW 21:03:55 10° SSE visible
10 Aug 10.0 23:02:06 10° WSW 23:05:27 11° SW 23:08:28 10° SW visible
11 Aug 9.9 21:55:18 10° W 22:05:36 20° SW 22:13:24 10° S visible
12 Aug 9.9 20:51:00 10° W 21:05:16 29° SW 21:15:36 10° SSE visible
13 Aug 10.2 22:10:26 10° WSW 22:17:11 14° SW 22:22:53 10° SSW visible
14 Aug 10.1 21:04:39 10° W 21:16:59 22° SW 21:26:33 10° S visible
16 Aug 10.5 21:19:28 10° W 21:28:32 16° SW 21:36:12 10° SSW visible
17 Aug 10.4 20:14:16 10° W 20:27:59 24° SW 20:39:13 10° S visible
19 Aug 10.7 20:28:57 10° W 20:39:32 17° SW 20:48:49 10° SSW visible
